Location: Aghk�ilisa
(40.0189°N, 45.0097°E)
Time: 20:16:47
(UTC+00:00)

Cosmos 921 Rocket - Pass Details

Date: 21 October 2019
Orbit: 573 x 631 km, 75.8° (Epoch: 21 November)

Event Time Altitude Azimuth Distance (km) Brightness Sun altitude
Rises 14:28:33 0° 202° (SSW) 2,906 7.0 -3.8°
Reaches altitude 10° 14:30:49 10° 205° (SSW) 2,001 6.2 -4.3°
Maximum altitude 14:35:16 66° 288° (WNW) 684 3.6 -5.1°
Drops below altitude 10° 14:39:42 10° 11° (N) 1,993 5.5 -5.9°
Sets 14:41:58 0° 14° (NNE) 2,894 6.3 -6.4°
